[[{"header":{"parameterUnit":"m.s-1","parameterCategory":2,"la1":30.2991,"la2":30.254,"lo1":-89.0895,"lo2":-89.0444,"dy":0.0017,"dx":0.0017,"nx":28,"ny":28,"refTime":"2025-12-06T09:00:00:Z","depth":"0","parameterNumber":2,"parameterNumberName":"U-component_of_CURRENTS"},"data":[0,0,0,0,0,0,0,0,0,0,0,0,0,0,0,0,0,0,0,0,0,0,0,0,0,0,0,0,0,0,0,0,0,0,0,0,0,0,0,0,0,0,0,0,0,0,0,0,0,0,0,0,0,0,0,0,0,0,-0.2356,-0.2356,0,-0.2343,-0.2343,-0.2343,-0.2307,-0.2306,-0.2306,-0.2305,-0.2246,-0.2245,-0.2243,0,0,0,0,0,0,0,0,0,0,0,0,0,-0.2331,-0.2332,-0.2356,-0.2356,-0.2357,-0.2343,-0.2343,-0.2343,-0.2307,-0.2306,-0.2305,-0.2305,-0.2246,-0.2245,-0.2243,0,0,0,0,0,0,0,0,0,0,0,0,0,-0.233,-0.2332,-0.2356,-0.2339,-0.2337,-0.2343,-0.2343,-0.2342,-0.2307,-0.2306,-0.2305,-0.2304,-0.2246,-0.2245,-0.2243,-0.2249,0,0,-0.2238,-0.2238,0,0,0,0,0,0,0,0,-0.233,-0.2331,-0.2341,-0.234,-0.2339,-0.2328,-0.2312,-0.231,-0.2307,-0.2316,-0.2305,-0.2304,-0.2271,-0.2267,-0.2264,-0.2247,-0.2244,-0.2238,-0.2237,-0.2236,-0.2236,0,0,0,0,0,0,0,-0.233,-0.2331,-0.2349,-0.2342,-0.234,-0.2326,-0.2324,-0.2312,-0.2295,-0.2315,-0.2313,-0.2316,-0.227,-0.2265,-0.2262,-0.2243,-0.2238,-0.2237,-0.2236,-0.2235,-0.2235,-0.2236,0,0,0,0,0,0,-0.2339,-0.2331,-0.2349,-0.2348,-0.2335,-0.2327,-0.2325,-0.233,-0.2296,-0.2292,-0.2317,-0.2314,-0.2269,-0.2264,-0.226,-0.2267,-0.2236,-0.2235,-0.2234,-0.2234,-0.2235,-0.2237,0,0,0,0,0,0,-0.2339,-0.2341,-0.235,-0.2341,-0.2342,-0.2329,-0.2334,-0.233,-0.2324,-0.2299,-0.2292,-0.2314,-0.2268,-0.2262,-0.2254,-0.2265,-0.2234,-0.2233,-0.2233,-0.2235,-0.2236,-0.2281,0,0,0,0,0,0,-0.2338,-0.2341,-0.2343,-0.2342,-0.2343,-0.2358,-0.2335,-0.2331,-0.2328,-0.2325,-0.2294,-0.2288,-0.2267,-0.2257,-0.2252,-0.2262,-0.2231,-0.2232,-0.2234,-0.2236,-0.2278,-0.2284,-0.2289,0,0,0,0,0,-0.2337,-0.2347,-0.2343,-0.2345,-0.2347,-0.2359,-0.2358,-0.2344,-0.2329,-0.2333,-0.2313,-0.2289,-0.2265,-0.2256,-0.2251,-0.226,-0.2231,-0.2233,-0.2235,-0.2276,-0.2283,-0.2289,0,0,0,0,0,0,-0.2336,-0.2345,-0.234,-0.2351,-0.2357,-0.2354,-0.2354,-0.2348,-0.2335,-0.2327,-0.2299,-0.2292,-0.229,-0.2273,-0.2264,-0.2268,-0.2245,-0.2246,-0.2278,-0.2284,-0.2289,-0.2283,-0.223,0,0,0,0,0,-0.2339,-0.2344,-0.2354,-0.2361,-0.2366,-0.236,-0.2361,-0.2356,-0.2348,-0.2341,-0.2323,-0.2305,-0.2297,-0.2288,-0.2277,-0.2277,-0.2245,-0.2282,-0.2287,-0.2291,-0.2285,-0.2254,-0.2255,-0.2244,-0.2244,-0.2244,0,0,-0.2338,-0.2344,-0.2346,-0.236,-0.236,-0.2374,-0.2358,-0.2364,-0.2372,-0.2337,-0.2335,-0.2321,-0.2302,-0.2303,-0.2301,-0.2288,-0.2279,-0.2294,-0.2298,-0.2289,-0.2256,-0.2257,-0.2257,-0.2245,-0.2245,-0.2245,0,0,-0.2344,-0.2348,-0.2356,-0.2368,-0.2378,-0.2381,-0.2386,-0.2389,-0.2384,-0.2389,-0.2366,-0.2357,-0.2346,-0.2332,-0.2325,-0.2352,-0.2309,-0.2355,-0.2372,-0.2343,-0.2343,-0.2342,-0.2304,-0.23,-0.2356,-0.2356,-0.2356,0,-0.2342,-0.2355,-0.2361,-0.2377,-0.2385,-0.2387,-0.2402,-0.2407,-0.2405,-0.24,-0.2393,-0.2374,-0.2358,-0.2354,-0.2366,-0.2361,-0.2335,-0.2349,-0.2348,-0.2347,-0.2345,-0.2306,-0.2301,-0.2358,-0.2358,-0.2358,-0.2357,0,-0.2356,-0.2369,-0.2377,-0.2396,-0.241,-0.2422,-0.2438,-0.2444,-0.244,-0.2437,-0.2433,-0.2416,-0.2398,-0.2403,-0.2392,-0.2384,-0.2365,-0.2358,-0.2328,-0.2349,-0.2307,-0.23,-0.2362,-0.2361,-0.236,-0.236,0,0,-0.2337,-0.2378,-0.2378,-0.2388,-0.2419,-0.2428,-0.2452,-0.2464,-0.2464,-0.2467,-0.246,-0.2458,-0.244,-0.2431,-0.2417,-0.2399,-0.2373,-0.238,-0.2377,-0.2335,-0.23,-0.221,-0.2194,-0.2366,-0.2365,-0.2365,-0.2273,0,-0.2339,-0.2368,-0.2392,-0.2415,-0.2429,-0.2449,-0.2468,-0.248,-0.2483,-0.2479,-0.2468,-0.2457,-0.2455,-0.2442,-0.2427,-0.2387,-0.2359,-0.2398,-0.2291,-0.2287,-0.22,-0.2184,-0.2086,-0.1989,-0.2267,-0.2266,-0.2265,0,-0.2333,-0.2355,-0.2379,-0.2414,-0.2422,-0.2439,-0.2455,-0.2474,-0.2482,-0.2482,-0.2476,-0.2463,-0.2445,-0.2436,-0.2373,-0.2398,-0.235,-0.2318,-0.2314,-0.2206,-0.2185,-0.2014,-0.1967,-0.1944,-0.2255,-0.2255,-0.2256,0,-0.2292,-0.2339,-0.2353,-0.2367,-0.2414,-0.2422,-0.2444,-0.2463,-0.2468,-0.2475,-0.2468,-0.2454,-0.2426,-0.2386,-0.2323,-0.2347,-0.2238,-0.2258,-0.2129,-0.2122,-0.2002,-0.1985,-0.191,-0.2197,-0.2197,-0.2197,-0.2197,0,-0.2271,-0.228,-0.2333,-0.2339,-0.2349,-0.2395,-0.2399,-0.2421,-0.244,-0.2429,-0.2456,-0.2429,-0.241,-0.2351,-0.2309,-0.2183,-0.2218,-0.2114,-0.2086,-0.2015,-0.2001,-0.1947,-0.197,-0.2194,-0.2194,-0.2195,-0.2196,0,-0.2207,-0.225,-0.2262,-0.2313,-0.2326,-0.2326,-0.2366,-0.2364,-0.2402,-0.2387,-0.2387,-0.2389,-0.231,-0.227,-0.2184,-0.2136,-0.1995,-0.1991,-0.1903,-0.1865,-0.1732,-0.1762,-0.1646,-0.1606,-0.1841,-0.1838,-0.1836,0,-0.2171,-0.2172,-0.2219,-0.2218,-0.2235,-0.2254,-0.2258,-0.2321,-0.2323,-0.2345,-0.2322,-0.227,-0.2182,-0.2033,-0.1947,-0.183,-0.1853,-0.1687,-0.1712,-0.169,-0.1703,-0.1739,-0.1719,-0.1577,-0.1572,-0.1569,-0.1566,0,-0.2084,-0.2102,-0.2112,-0.2116,-0.2122,-0.2136,-0.2156,-0.2158,-0.2217,-0.2199,-0.2145,-0.208,-0.1955,-0.178,-0.1655,-0.1593,-0.1639,-0.1609,-0.1606,-0.1496,-0.1508,-0.1467,-0.1682,-0.1534,-0.1537,-0.154,-0.1541,-0.1543,-0.1996,-0.198,-0.199,-0.1983,-0.1997,-0.1991,-0.1953,-0.1983,-0.1956,-0.1905,-0.1929,-0.1784,-0.167,-0.1467,-0.1406,-0.1285,-0.1378,-0.1256,-0.1295,-0.1335,-0.1288,-0.1423,-0.1235,-0.1236,-0.1237,-0.1238,-0.1239,0,-0.1868,-0.1862,-0.1852,-0.184,-0.1803,-0.1857,-0.1852,-0.1788,-0.1705,-0.1683,-0.1595,-0.1415,-0.1247,-0.1184,-0.1059,-0.0996,-0.101,-0.0991,-0.1036,-0.1032,-0.1149,-0.1128,-0.0881,-0.0881,-0.0881,-0.0881,-0.0881,-0.0881,-0.1797,-0.174,-0.1741,-0.1641,-0.163,-0.1532,-0.1498,-0.1429,-0.1381,-0.1216,-0.1114,-0.1066,-0.1014,-0.0992,-0.0894,-0.0857,-0.0873,-0.0827,-0.0887,-0.0994,-0.1024,-0.1052,-0.1037,-0.0775,-0.0775,-0.0726,-0.0726,-0.0726]},{"header":{"parameterUnit":"m.s-1","parameterCategory":2,"la1":30.2991,"la2":30.254,"lo1":-89.0895,"lo2":-89.0444,"dy":0.0017,"dx":0.0017,"nx":28,"ny":28,"refTime":"2025-12-06T09:00:00:Z","depth":"0","parameterNumber":3,"parameterNumberName":"V-component_of_CURRENTS"},"data":[0,0,0,0,0,0,0,0,0,0,0,0,0,0,0,0,0,0,0,0,0,0,0,0,0,0,0,0,0,0,0,0,0,0,0,0,0,0,0,0,0,0,0,0,0,0,0,0,0,0,0,0,0,0,0,0,0,0,-0.0461,-0.0461,0,-0.039,-0.0389,-0.0388,-0.0342,-0.0342,-0.0342,-0.0341,-0.0242,-0.024,-0.0237,0,0,0,0,0,0,0,0,0,0,0,0,0,-0.0515,-0.0515,-0.0462,-0.0461,-0.046,-0.039,-0.0389,-0.0388,-0.0342,-0.0342,-0.0342,-0.0341,-0.0243,-0.024,-0.0237,0,0,0,0,0,0,0,0,0,0,0,0,0,-0.0472,-0.0515,-0.0462,-0.0429,-0.0425,-0.039,-0.0389,-0.0388,-0.0342,-0.0342,-0.0341,-0.0341,-0.0244,-0.024,-0.0237,-0.0222,0,0,-0.0226,-0.0224,0,0,0,0,0,0,0,0,-0.0475,-0.047,-0.0435,-0.0431,-0.0427,-0.0375,-0.0371,-0.0331,-0.0342,-0.0373,-0.0341,-0.0341,-0.0284,-0.0277,-0.0265,-0.0217,-0.0213,-0.0225,-0.0223,-0.0222,-0.0221,0,0,0,0,0,0,0,-0.0478,-0.0473,-0.0433,-0.0434,-0.0429,-0.0403,-0.0396,-0.0363,-0.0331,-0.0371,-0.0367,-0.036,-0.0282,-0.0268,-0.0262,-0.0211,-0.0225,-0.0222,-0.022,-0.0219,-0.0132,-0.0132,0,0,0,0,0,0,-0.049,-0.0476,-0.0435,-0.0431,-0.0451,-0.0402,-0.0395,-0.0392,-0.0332,-0.0323,-0.036,-0.0358,-0.0275,-0.0266,-0.0258,-0.0232,-0.0222,-0.0218,-0.0216,-0.0132,-0.0132,-0.0132,0,0,0,0,0,0,-0.0492,-0.0487,-0.0438,-0.0452,-0.0444,-0.0402,-0.0398,-0.039,-0.0376,-0.0324,-0.0315,-0.0354,-0.0274,-0.0263,-0.0228,-0.0228,-0.0217,-0.0213,-0.0132,-0.0132,-0.0132,-0.0183,0,0,0,0,0,0,-0.0494,-0.0488,-0.0492,-0.0453,-0.0443,-0.0423,-0.0398,-0.0389,-0.0373,-0.0369,-0.0316,-0.0306,-0.0273,-0.0234,-0.0225,-0.0223,-0.021,-0.0133,-0.0132,-0.0132,-0.0182,-0.0185,-0.0187,0,0,0,0,0,-0.0496,-0.0504,-0.0492,-0.0487,-0.0449,-0.0423,-0.0416,-0.0385,-0.0373,-0.037,-0.0332,-0.0308,-0.0226,-0.0231,-0.022,-0.0217,-0.0133,-0.0132,-0.0132,-0.018,-0.0184,-0.0187,0,0,0,0,0,0,-0.0528,-0.0499,-0.0485,-0.0484,-0.0458,-0.0416,-0.0411,-0.039,-0.0358,-0.0354,-0.0305,-0.0293,-0.0264,-0.0233,-0.024,-0.0191,-0.0176,-0.0173,-0.0216,-0.0219,-0.0222,-0.023,-0.0207,0,0,0,0,0,-0.0538,-0.0537,-0.0501,-0.05,-0.0491,-0.0452,-0.0439,-0.0418,-0.0384,-0.0369,-0.0331,-0.029,-0.0255,-0.0232,-0.0199,-0.017,-0.0133,-0.0161,-0.0164,-0.0167,-0.0165,-0.0113,-0.0111,-0.0131,-0.0131,-0.0131,0,0,-0.055,-0.0534,-0.0533,-0.0507,-0.0486,-0.0477,-0.0443,-0.0428,-0.0417,-0.0363,-0.0339,-0.0302,-0.0251,-0.0221,-0.0205,-0.0194,-0.0141,-0.0166,-0.0169,-0.0166,-0.0113,-0.0111,-0.0109,-0.0131,-0.0131,-0.0131,0,0,-0.0578,-0.0561,-0.057,-0.0552,-0.0525,-0.0499,-0.0497,-0.0458,-0.0437,-0.0409,-0.0368,-0.033,-0.0278,-0.0237,-0.021,-0.0208,-0.0162,-0.0199,-0.0214,-0.0164,-0.0162,-0.016,-0.011,-0.0103,-0.0196,-0.0196,-0.0196,0,-0.0595,-0.0599,-0.0568,-0.0571,-0.0559,-0.0513,-0.0516,-0.0488,-0.0442,-0.042,-0.041,-0.0321,-0.0284,-0.0233,-0.0234,-0.0214,-0.0179,-0.0208,-0.0168,-0.0165,-0.0162,-0.0112,-0.0103,-0.0198,-0.0198,-0.0198,-0.0198,0,-0.0627,-0.0628,-0.0631,-0.0619,-0.0602,-0.0597,-0.0555,-0.0533,-0.0503,-0.0467,-0.0415,-0.0358,-0.0302,-0.0286,-0.0259,-0.0216,-0.0197,-0.0184,-0.0163,-0.0163,-0.011,-0.0101,-0.0202,-0.0201,-0.02,-0.02,0,0,-0.0668,-0.0658,-0.0658,-0.066,-0.0627,-0.0616,-0.0595,-0.0556,-0.0534,-0.0485,-0.0447,-0.0386,-0.0348,-0.0315,-0.027,-0.0225,-0.0176,-0.02,-0.0196,-0.0157,-0.0063,-0.0029,-0.0014,-0.0158,-0.0157,-0.0155,-0.0036,0,-0.0702,-0.0725,-0.0702,-0.0711,-0.0717,-0.0667,-0.0648,-0.0604,-0.0557,-0.0508,-0.0436,-0.0387,-0.0359,-0.033,-0.0282,-0.0199,-0.0153,-0.021,-0.0063,-0.0058,-0.0032,-0.0003,0.0025,0.0135,-0.0026,-0.0024,-0.0023,0,-0.074,-0.0749,-0.0774,-0.0755,-0.0751,-0.0745,-0.0698,-0.0674,-0.0591,-0.0552,-0.0486,-0.0423,-0.0342,-0.0325,-0.0185,-0.0222,-0.0152,-0.009,-0.0084,-0.0026,-0.0006,0.0112,0.016,0.024,-0.0008,-0.0009,-0.001,0,-0.0789,-0.0793,-0.0816,-0.0812,-0.0787,-0.078,-0.0758,-0.069,-0.066,-0.0576,-0.0537,-0.0435,-0.0369,-0.0275,-0.0145,-0.0164,0.0013,0.0006,0.0106,0.0109,0.0175,0.0182,0.0315,0.0099,0.0099,0.0098,0.0098,0,-0.0836,-0.0849,-0.0844,-0.0857,-0.0868,-0.0829,-0.0815,-0.0775,-0.0704,-0.0653,-0.0566,-0.049,-0.0353,-0.0231,-0.0138,0.0027,0.0024,0.0115,0.0148,0.0158,0.0162,0.0268,0.0286,0.0103,0.0102,0.0101,0.01,0,-0.0886,-0.0885,-0.091,-0.0901,-0.0897,-0.0906,-0.0864,-0.0843,-0.0773,-0.0701,-0.0673,-0.0517,-0.0348,-0.0206,-0.0024,0.0052,0.0252,0.0244,0.0248,0.0278,0.0423,0.0437,0.0598,0.0656,0.0369,0.037,0.0372,0,-0.0914,-0.0936,-0.0952,-0.0967,-0.0967,-0.0965,-0.0955,-0.0892,-0.0854,-0.0702,-0.0662,-0.0482,-0.0325,-0.0047,0.0117,0.0301,0.035,0.042,0.0385,0.0451,0.049,0.0489,0.0525,0.0456,0.0458,0.046,0.0461,0,-0.0961,-0.0969,-0.0992,-0.1026,-0.1035,-0.1031,-0.1003,-0.0979,-0.0874,-0.0778,-0.0604,-0.0464,-0.0188,0.0059,0.0283,0.0385,0.0478,0.0458,0.0537,0.0582,0.0582,0.0646,0.0351,0.0475,0.0474,0.0473,0.0472,0.0471,-0.0987,-0.1019,-0.1047,-0.1076,-0.1088,-0.1073,-0.1042,-0.0972,-0.0876,-0.0679,-0.0559,-0.0282,-0.0,0.0335,0.044,0.0653,0.0613,0.071,0.0725,0.0722,0.0764,0.0497,0.0644,0.0644,0.0644,0.0643,0.0643,0,-0.1011,-0.1046,-0.1085,-0.1111,-0.1122,-0.1112,-0.1051,-0.0971,-0.0823,-0.0603,-0.0398,0.0023,0.0301,0.054,0.0808,0.0914,0.0922,0.0964,0.0971,0.0999,0.0786,0.0775,0.0946,0.0946,0.0946,0.0946,0.0945,0.0945,-0.1023,-0.1071,-0.1095,-0.1123,-0.1134,-0.1093,-0.1043,-0.0891,-0.0705,-0.0335,-0.0023,0.0224,0.0542,0.0885,0.1121,0.1141,0.1224,0.1212,0.126,0.1104,0.1081,0.1059,0.1055,0.1281,0.1281,0.1471,0.1473,0.1474]}],[{"header":{"parameterUnit":"m.s-1","parameterCategory":2,"la1":30.2991,"la2":30.254,"lo1":-89.0895,"lo2":-89.0444,"dy":0.0017,"dx":0.0017,"nx":28,"ny":28,"refTime":"2025-12-06T09:00:00:Z","depth":"2","parameterNumber":2,"parameterNumberName":"U-component_of_CURRENTS"},"data":[0,0,0,0,0,0,0,0,0,0,0,0,0,0,0,0,0,0,0,0,0,0,0,0,0,0,0,0,0,0,0,0,0,0,0,0,0,0,0,0,0,0,0,0,0,0,0,0,0,0,0,0,0,0,0,0,0,0,-0.1944,-0.1945,0,-0.1945,-0.1945,-0.1945,-0.1922,-0.1922,-0.1922,-0.1921,-0.1885,-0.1885,-0.1884,0,0,0,0,0,0,0,0,0,0,0,0,0,-0.1914,-0.1915,-0.1944,-0.1945,-0.1945,-0.1945,-0.1945,-0.1945,-0.1923,-0.1922,-0.1922,-0.1921,-0.1885,-0.1885,-0.1884,0,0,0,0,0,0,0,0,0,0,0,0,0,-0.192,-0.1915,-0.1944,-0.1935,-0.1935,-0.1945,-0.1945,-0.1945,-0.1923,-0.1922,-0.1921,-0.1921,-0.1886,-0.1885,-0.1884,-0.1891,0,0,-0.1881,-0.1881,0,0,0,0,0,0,0,0,-0.192,-0.1921,-0.1936,-0.1936,-0.1935,-0.1935,-0.1921,-0.1926,-0.1923,-0.1925,-0.1921,-0.1921,-0.19,-0.1898,-0.1897,-0.1889,-0.1887,-0.1881,-0.1881,-0.188,-0.188,0,0,0,0,0,0,0,-0.192,-0.1921,-0.1943,-0.1937,-0.1936,-0.1928,-0.1928,-0.1922,-0.1914,-0.1925,-0.1924,-0.1927,-0.1899,-0.1898,-0.1896,-0.1887,-0.1881,-0.188,-0.188,-0.1879,-0.1896,-0.1897,0,0,0,0,0,0,-0.1925,-0.1921,-0.1943,-0.1943,-0.1928,-0.1929,-0.1929,-0.1934,-0.1915,-0.1912,-0.1928,-0.1926,-0.19,-0.1897,-0.1895,-0.1912,-0.188,-0.1879,-0.1879,-0.1895,-0.1896,-0.1897,0,0,0,0,0,0,-0.1924,-0.1927,-0.1943,-0.1933,-0.1935,-0.1931,-0.1936,-0.1934,-0.1935,-0.1918,-0.1914,-0.193,-0.1899,-0.1896,-0.1897,-0.1909,-0.1879,-0.1878,-0.1894,-0.1895,-0.1897,-0.1939,0,0,0,0,0,0,-0.1924,-0.1927,-0.193,-0.1934,-0.1936,-0.1955,-0.1937,-0.1935,-0.1939,-0.1937,-0.1919,-0.1915,-0.1899,-0.1898,-0.1896,-0.1908,-0.1877,-0.1892,-0.1894,-0.1896,-0.1936,-0.1941,-0.1946,0,0,0,0,0,-0.1922,-0.1932,-0.193,-0.1933,-0.1941,-0.1956,-0.1956,-0.1949,-0.194,-0.1946,-0.1935,-0.1915,-0.1908,-0.1899,-0.1896,-0.1907,-0.1892,-0.1894,-0.1896,-0.1934,-0.194,-0.1946,0,0,0,0,0,0,-0.192,-0.1931,-0.1929,-0.1941,-0.195,-0.1953,-0.1957,-0.1955,-0.1951,-0.1947,-0.1926,-0.1922,-0.1928,-0.1915,-0.1905,-0.1919,-0.1897,-0.1899,-0.1927,-0.1933,-0.1938,-0.193,-0.1877,0,0,0,0,0,-0.1922,-0.1929,-0.1942,-0.195,-0.1957,-0.1958,-0.1962,-0.1961,-0.1961,-0.1958,-0.1948,-0.1938,-0.1936,-0.1932,-0.1927,-0.1934,-0.1905,-0.194,-0.1945,-0.1949,-0.1942,-0.1918,-0.192,-0.1904,-0.1904,-0.1904,0,0,-0.1922,-0.193,-0.1933,-0.1949,-0.1953,-0.197,-0.1958,-0.197,-0.1981,-0.1955,-0.1962,-0.1955,-0.1942,-0.195,-0.1952,-0.194,-0.194,-0.1952,-0.1956,-0.1946,-0.1921,-0.1922,-0.1923,-0.1906,-0.1905,-0.1905,0,0,-0.1928,-0.1935,-0.1944,-0.1958,-0.1973,-0.1978,-0.1985,-0.1995,-0.1996,-0.2008,-0.1992,-0.199,-0.1989,-0.198,-0.1976,-0.2005,-0.1967,-0.201,-0.2026,-0.2003,-0.2004,-0.2004,-0.1969,-0.1966,-0.2011,-0.2011,-0.2011,0,-0.1927,-0.1941,-0.195,-0.1967,-0.1978,-0.1985,-0.2002,-0.2011,-0.2019,-0.2019,-0.2015,-0.2011,-0.2001,-0.2003,-0.2016,-0.2014,-0.1992,-0.2004,-0.2008,-0.2008,-0.2007,-0.1971,-0.1967,-0.2014,-0.2013,-0.2013,-0.2013,0,-0.1941,-0.1956,-0.1965,-0.1987,-0.2003,-0.2019,-0.2038,-0.205,-0.2053,-0.2056,-0.2061,-0.2051,-0.2042,-0.2049,-0.2041,-0.2039,-0.2021,-0.2017,-0.199,-0.2011,-0.1972,-0.1967,-0.2017,-0.2016,-0.2015,-0.2015,0,0,-0.1923,-0.1966,-0.1967,-0.198,-0.2014,-0.2026,-0.2053,-0.2072,-0.2078,-0.2089,-0.2089,-0.2095,-0.2083,-0.2077,-0.2068,-0.2054,-0.2034,-0.2038,-0.2036,-0.1997,-0.1974,-0.1888,-0.1874,-0.2032,-0.2031,-0.2031,-0.1948,0,-0.1927,-0.1958,-0.1981,-0.2009,-0.2024,-0.2049,-0.2071,-0.209,-0.21,-0.2105,-0.2099,-0.2098,-0.2096,-0.209,-0.2079,-0.2046,-0.2023,-0.2056,-0.1965,-0.1961,-0.1877,-0.1866,-0.1737,-0.1646,-0.1943,-0.1942,-0.1941,0,-0.1923,-0.1946,-0.1973,-0.2012,-0.2021,-0.2042,-0.2067,-0.209,-0.2107,-0.2113,-0.2115,-0.2108,-0.2096,-0.2089,-0.2037,-0.2059,-0.2017,-0.199,-0.1986,-0.1884,-0.1865,-0.1674,-0.1625,-0.1932,-0.1933,-0.1933,-0.1934,0,-0.1886,-0.1934,-0.1952,-0.1967,-0.2018,-0.2032,-0.2056,-0.2084,-0.2094,-0.2112,-0.2109,-0.2104,-0.2083,-0.2051,-0.1996,-0.2017,-0.1922,-0.1941,-0.1821,-0.1814,-0.1673,-0.1654,-0.1889,-0.1889,-0.1889,-0.189,-0.189,0,-0.1868,-0.1881,-0.1936,-0.1945,-0.1961,-0.2009,-0.2023,-0.2049,-0.2075,-0.2069,-0.2103,-0.208,-0.2072,-0.2021,-0.1984,-0.1871,-0.1906,-0.1807,-0.1782,-0.1684,-0.1668,-0.1894,-0.1896,-0.1887,-0.1887,-0.1888,-0.1888,0,-0.1811,-0.1854,-0.1871,-0.1925,-0.1941,-0.1947,-0.1995,-0.1997,-0.2042,-0.2031,-0.2034,-0.2046,-0.1978,-0.1946,-0.1873,-0.1829,-0.175,-0.1698,-0.1576,-0.1538,-0.1665,-0.167,-0.1565,-0.1561,-0.1558,-0.1555,-0.1553,0,-0.1779,-0.1783,-0.1834,-0.1837,-0.1858,-0.1884,-0.1893,-0.196,-0.1963,-0.1991,-0.1968,-0.193,-0.1849,-0.1722,-0.1645,-0.1541,-0.1627,-0.1377,-0.1394,-0.1642,-0.1629,-0.164,-0.1649,-0.1226,-0.1221,-0.1217,-0.1214,0,-0.1702,-0.1721,-0.1733,-0.1744,-0.1755,-0.1771,-0.1795,-0.1796,-0.1856,-0.1841,-0.1792,-0.1734,-0.1629,-0.1454,-0.1346,-0.1287,-0.1391,-0.1293,-0.1562,-0.1332,-0.1316,-0.1306,-0.1327,-0.1179,-0.1182,-0.1185,-0.1187,-0.1188,-0.1623,-0.1609,-0.1622,-0.162,-0.1639,-0.163,-0.1592,-0.162,-0.1593,-0.1539,-0.1573,-0.1429,-0.1399,-0.1142,-0.1063,-0.1019,-0.1127,-0.1088,-0.1102,-0.112,-0.11,-0.108,-0.0894,-0.0895,-0.0897,-0.0898,-0.09,0,-0.1505,-0.1501,-0.1495,-0.1483,-0.145,-0.1507,-0.1495,-0.1424,-0.1337,-0.1313,-0.1232,-0.1027,-0.0899,-0.0883,-0.0747,-0.0721,-0.0747,-0.0702,-0.0741,-0.0774,-0.0804,-0.0772,-0.0476,-0.0475,-0.0474,-0.0473,0,0,-0.144,-0.1387,-0.1387,-0.129,-0.1283,-0.1184,-0.1147,-0.1067,-0.1013,-0.0875,-0.0792,-0.0823,-0.0823,-0.0641,-0.0606,-0.0514,-0.0643,-0.0486,-0.0821,-0.0898,-0.0927,-0.1015,-0.1,0,0,0,0,0]},{"header":{"parameterUnit":"m.s-1","parameterCategory":2,"la1":30.2991,"la2":30.254,"lo1":-89.0895,"lo2":-89.0444,"dy":0.0017,"dx":0.0017,"nx":28,"ny":28,"refTime":"2025-12-06T09:00:00:Z","depth":"2","parameterNumber":3,"parameterNumberName":"V-component_of_CURRENTS"},"data":[0,0,0,0,0,0,0,0,0,0,0,0,0,0,0,0,0,0,0,0,0,0,0,0,0,0,0,0,0,0,0,0,0,0,0,0,0,0,0,0,0,0,0,0,0,0,0,0,0,0,0,0,0,0,0,0,0,0,-0.0364,-0.0363,0,-0.0301,-0.0301,-0.03,-0.0261,-0.026,-0.026,-0.026,-0.017,-0.0168,-0.0166,0,0,0,0,0,0,0,0,0,0,0,0,0,-0.0406,-0.0405,-0.0364,-0.0363,-0.0363,-0.0302,-0.0301,-0.03,-0.0261,-0.026,-0.026,-0.026,-0.0171,-0.0169,-0.0166,0,0,0,0,0,0,0,0,0,0,0,0,0,-0.037,-0.0405,-0.0364,-0.0336,-0.0333,-0.0302,-0.0301,-0.03,-0.0261,-0.026,-0.026,-0.026,-0.0172,-0.0169,-0.0166,-0.0151,0,0,-0.0155,-0.0154,0,0,0,0,0,0,0,0,-0.0372,-0.0368,-0.0341,-0.0338,-0.0334,-0.0289,-0.0282,-0.0249,-0.0261,-0.0288,-0.026,-0.026,-0.0208,-0.0202,-0.019,-0.0147,-0.0143,-0.0155,-0.0153,-0.0152,-0.0151,0,0,0,0,0,0,0,-0.0374,-0.037,-0.0339,-0.034,-0.0336,-0.0311,-0.0306,-0.0276,-0.025,-0.0285,-0.0282,-0.0276,-0.0206,-0.0194,-0.0188,-0.0142,-0.0155,-0.0152,-0.015,-0.0149,-0.0071,-0.0071,0,0,0,0,0,0,-0.0385,-0.0373,-0.0341,-0.0337,-0.0353,-0.0311,-0.0305,-0.0303,-0.025,-0.0242,-0.0276,-0.0274,-0.02,-0.0192,-0.0185,-0.016,-0.0152,-0.0149,-0.0147,-0.0071,-0.0071,-0.0071,0,0,0,0,0,0,-0.0386,-0.0383,-0.0343,-0.0353,-0.0347,-0.0311,-0.0309,-0.0302,-0.0291,-0.0244,-0.0235,-0.0272,-0.0199,-0.0189,-0.0158,-0.0157,-0.0147,-0.0144,-0.0071,-0.0071,-0.0071,-0.0114,0,0,0,0,0,0,-0.0388,-0.0384,-0.0388,-0.0355,-0.0347,-0.033,-0.0309,-0.0301,-0.0287,-0.0284,-0.0237,-0.0228,-0.0198,-0.0163,-0.0155,-0.0152,-0.0142,-0.0071,-0.0071,-0.0071,-0.0113,-0.0116,-0.0118,0,0,0,0,0,-0.039,-0.0398,-0.0389,-0.0385,-0.0353,-0.033,-0.0324,-0.0297,-0.0288,-0.0285,-0.0251,-0.023,-0.0156,-0.016,-0.015,-0.0147,-0.0071,-0.0071,-0.0071,-0.0112,-0.0115,-0.0118,0,0,0,0,0,0,-0.0417,-0.0393,-0.0383,-0.0383,-0.0361,-0.0324,-0.032,-0.0302,-0.0274,-0.0271,-0.0227,-0.0216,-0.019,-0.0162,-0.0168,-0.0124,-0.011,-0.0108,-0.0145,-0.0148,-0.015,-0.0159,-0.0139,0,0,0,0,0,-0.0426,-0.0427,-0.0397,-0.0397,-0.0389,-0.0356,-0.0344,-0.0326,-0.0296,-0.0284,-0.025,-0.0214,-0.0182,-0.0161,-0.0131,-0.0104,-0.0072,-0.0095,-0.0098,-0.01,-0.01,-0.0052,-0.005,-0.007,-0.007,-0.007,0,0,-0.0436,-0.0424,-0.0424,-0.0403,-0.0385,-0.0377,-0.0348,-0.0335,-0.0325,-0.0278,-0.0257,-0.0224,-0.0178,-0.0151,-0.0136,-0.0126,-0.0078,-0.01,-0.0102,-0.0101,-0.0052,-0.005,-0.0048,-0.007,-0.007,-0.007,0,0,-0.046,-0.0448,-0.0456,-0.0441,-0.0419,-0.0396,-0.0395,-0.0361,-0.0343,-0.0318,-0.0283,-0.0247,-0.0201,-0.0164,-0.0139,-0.0136,-0.0098,-0.013,-0.0142,-0.0096,-0.0094,-0.0092,-0.0052,-0.0046,-0.0126,-0.0126,-0.0126,0,-0.0474,-0.048,-0.0455,-0.0457,-0.0448,-0.0408,-0.0412,-0.0386,-0.0346,-0.0328,-0.0318,-0.0241,-0.0205,-0.0159,-0.0159,-0.0141,-0.0113,-0.0137,-0.01,-0.0097,-0.0094,-0.0053,-0.0046,-0.0128,-0.0128,-0.0127,-0.0127,0,-0.0502,-0.0505,-0.0508,-0.0499,-0.0484,-0.0481,-0.0444,-0.0426,-0.04,-0.0367,-0.0323,-0.027,-0.0222,-0.0206,-0.0181,-0.0142,-0.0128,-0.0114,-0.0095,-0.0095,-0.0052,-0.0043,-0.0131,-0.013,-0.0129,-0.0129,0,0,-0.0538,-0.0531,-0.0532,-0.0535,-0.0507,-0.0498,-0.048,-0.0446,-0.0428,-0.0383,-0.0352,-0.0294,-0.0262,-0.0232,-0.0192,-0.0149,-0.0106,-0.0128,-0.0124,-0.0093,-0.0007,0.0013,0.0025,-0.0088,-0.0086,-0.0085,0.0013,0,-0.0568,-0.059,-0.057,-0.058,-0.0587,-0.0544,-0.0529,-0.0491,-0.0449,-0.0408,-0.0341,-0.03,-0.0272,-0.0248,-0.0202,-0.0128,-0.0085,-0.0134,-0.0008,-0.0004,0.0011,0.0035,0.002,0.0107,0.0021,0.0023,0.0024,0,-0.0601,-0.0611,-0.0636,-0.0624,-0.0621,-0.0617,-0.058,-0.0559,-0.0487,-0.0453,-0.0393,-0.0339,-0.0265,-0.0246,-0.0119,-0.0153,-0.0089,-0.0032,-0.0026,0.0015,0.0033,0.0096,0.0126,0.0038,0.0037,0.0036,0.0035,0,-0.0647,-0.0653,-0.0676,-0.0674,-0.0655,-0.0652,-0.0635,-0.0576,-0.0552,-0.0479,-0.0449,-0.0355,-0.0299,-0.021,-0.0093,-0.0106,0.0049,0.0049,0.013,0.0132,0.0157,0.0159,0.0134,0.0134,0.0134,0.0134,0.0133,0,-0.0689,-0.0703,-0.0703,-0.0717,-0.0734,-0.07,-0.0694,-0.0659,-0.0599,-0.0559,-0.0479,-0.0418,-0.0287,-0.018,-0.0091,0.0053,0.0055,0.0136,0.0164,0.0141,0.014,0.0108,0.0103,0.0137,0.0137,0.0136,0.0135,0,-0.0735,-0.0736,-0.0763,-0.0761,-0.076,-0.0773,-0.0744,-0.073,-0.067,-0.0613,-0.0591,-0.0454,-0.0307,-0.0174,-0.0007,0.0065,0.019,0.0237,0.0199,0.022,0.0238,0.0231,0.0335,0.0337,0.0338,0.034,0.0341,0,-0.0761,-0.0783,-0.0805,-0.0823,-0.0826,-0.0833,-0.0831,-0.0779,-0.0752,-0.0624,-0.0596,-0.044,-0.0307,-0.0059,0.0093,0.0261,0.025,0.0333,0.0305,0.0245,0.0262,0.0252,0.0242,0.0322,0.0323,0.0323,0.0324,0,-0.0805,-0.0816,-0.084,-0.0881,-0.0897,-0.0903,-0.089,-0.0874,-0.0787,-0.0711,-0.0568,-0.0449,-0.0208,-0.0004,0.02,0.0289,0.0302,0.035,0.0321,0.0266,0.0239,0.0252,0.0243,0.0329,0.0329,0.0328,0.0328,0.0328,-0.0831,-0.0864,-0.0896,-0.093,-0.0952,-0.0951,-0.0933,-0.0884,-0.0811,-0.065,-0.0548,-0.0321,-0.0172,0.0159,0.0271,0.038,0.0376,0.04,0.0396,0.0391,0.0365,0.0341,0.0446,0.0446,0.0446,0.0446,0.0446,0,-0.0856,-0.0891,-0.0934,-0.0969,-0.099,-0.0988,-0.095,-0.0888,-0.0774,-0.0601,-0.0433,-0.0195,0.0018,0.0178,0.0356,0.0439,0.0416,0.0448,0.0397,0.0392,0.0387,0.0357,0.0439,0.0439,0.0439,0.0439,0,0,-0.0869,-0.0918,-0.0943,-0.0984,-0.1004,-0.0986,-0.0949,-0.0827,-0.068,-0.0471,-0.0281,-0.0095,0.0084,0.0201,0.029,0.0379,0.0362,0.0384,0.0382,0.0306,0.03,0.0355,0.0304,0,0,0,0,0]}],[{"header":{"parameterUnit":"m.s-1","parameterCategory":2,"la1":30.2991,"la2":30.254,"lo1":-89.0895,"lo2":-89.0444,"dy":0.0017,"dx":0.0017,"nx":28,"ny":28,"refTime":"2025-12-06T09:00:00:Z","depth":"4","parameterNumber":2,"parameterNumberName":"U-component_of_CURRENTS"},"data":[0,0,0,0,0,0,0,0,0,0,0,0,0,0,0,0,0,0,0,0,0,0,0,0,0,0,0,0,0,0,0,0,0,0,0,0,0,0,0,0,0,0,0,0,0,0,0,0,0,0,0,0,0,0,0,0,0,0,-0.1325,-0.1325,0,-0.1367,-0.1367,-0.1367,-0.1395,-0.1395,-0.1396,-0.1396,-0.143,-0.1431,-0.1431,0,0,0,0,0,0,0,0,0,0,0,0,0,-0.1266,-0.1267,-0.1325,-0.1325,-0.1326,-0.1367,-0.1367,-0.1367,-0.1395,-0.1395,-0.1396,-0.1396,-0.143,-0.1431,-0.1431,0,0,0,0,0,0,0,0,0,0,0,0,0,-0.1297,-0.1267,-0.1325,-0.1346,-0.1348,-0.1366,-0.1367,-0.1368,-0.1395,-0.1395,-0.1396,-0.1396,-0.143,-0.1431,-0.1431,-0.1428,0,0,-0.1434,-0.1435,0,0,0,0,0,0,0,0,-0.1295,-0.1299,-0.1342,-0.1344,-0.1347,-0.1377,-0.1359,-0.1388,-0.1395,-0.1376,-0.1396,-0.1397,-0.1412,-0.1415,-0.142,-0.143,-0.1431,-0.1434,-0.1435,-0.1435,-0.1436,0,0,0,0,0,0,0,-0.1293,-0.1297,-0.134,-0.1342,-0.1346,-0.1352,-0.1357,-0.1365,-0.139,-0.1378,-0.138,-0.1386,-0.1413,-0.1419,-0.1421,-0.1432,-0.1434,-0.1435,-0.1436,-0.1436,-0.1504,-0.1505,0,0,0,0,0,0,-0.129,-0.1295,-0.1339,-0.1341,-0.1323,-0.1353,-0.1358,-0.1366,-0.139,-0.1395,-0.1386,-0.1388,-0.1417,-0.142,-0.1422,-0.1476,-0.1435,-0.1436,-0.1437,-0.1502,-0.1504,-0.1505,0,0,0,0,0,0,-0.1289,-0.1294,-0.1337,-0.132,-0.1326,-0.1354,-0.1362,-0.1367,-0.1395,-0.1397,-0.1401,-0.1412,-0.1417,-0.1421,-0.1452,-0.1475,-0.1437,-0.1438,-0.1501,-0.1503,-0.1504,-0.1548,0,0,0,0,0,0,-0.1287,-0.1293,-0.1308,-0.132,-0.1327,-0.1364,-0.1362,-0.1367,-0.1397,-0.1401,-0.142,-0.1423,-0.1418,-0.1451,-0.1453,-0.1476,-0.1438,-0.1499,-0.1502,-0.1504,-0.1545,-0.1551,-0.1556,0,0,0,0,0,-0.1285,-0.13,-0.1308,-0.1314,-0.1344,-0.1365,-0.137,-0.1389,-0.1399,-0.1416,-0.1432,-0.1423,-0.1467,-0.1453,-0.1455,-0.1479,-0.1498,-0.1501,-0.1504,-0.1542,-0.155,-0.1556,0,0,0,0,0,0,-0.1285,-0.1305,-0.1314,-0.1337,-0.1357,-0.1371,-0.1391,-0.1403,-0.1429,-0.1439,-0.1439,-0.1443,-0.1478,-0.1474,-0.1459,-0.1506,-0.1481,-0.1485,-0.151,-0.1517,-0.1522,-0.1511,-0.1439,0,0,0,0,0,-0.1291,-0.1309,-0.1328,-0.1348,-0.1361,-0.1381,-0.1396,-0.1411,-0.143,-0.1443,-0.1458,-0.1473,-0.1487,-0.15,-0.151,-0.1537,-0.1512,-0.1554,-0.156,-0.1564,-0.1558,-0.1545,-0.1548,-0.1514,-0.1514,-0.1514,0,0,-0.1297,-0.1311,-0.1322,-0.135,-0.1368,-0.1392,-0.1392,-0.1424,-0.1447,-0.1442,-0.1486,-0.1495,-0.1499,-0.1529,-0.1544,-0.1532,-0.1562,-0.1568,-0.1572,-0.1562,-0.1548,-0.1551,-0.1554,-0.1516,-0.1516,-0.1515,0,0,-0.131,-0.1332,-0.135,-0.137,-0.1403,-0.1415,-0.143,-0.1459,-0.148,-0.1518,-0.1519,-0.1541,-0.1571,-0.1573,-0.1577,-0.1619,-0.1591,-0.1632,-0.1653,-0.1642,-0.1644,-0.1645,-0.1615,-0.1614,-0.1636,-0.1636,-0.1636,0,-0.1319,-0.1341,-0.136,-0.1383,-0.1403,-0.1429,-0.1454,-0.1478,-0.1516,-0.1531,-0.1541,-0.158,-0.1587,-0.1607,-0.1626,-0.1631,-0.1614,-0.1626,-0.1647,-0.1648,-0.1649,-0.1618,-0.1616,-0.1639,-0.1638,-0.1638,-0.1638,0,-0.1336,-0.1366,-0.138,-0.1416,-0.1441,-0.147,-0.1501,-0.1534,-0.1563,-0.158,-0.1618,-0.1629,-0.1646,-0.1659,-0.1657,-0.1674,-0.1657,-0.1654,-0.1626,-0.1655,-0.162,-0.1617,-0.1642,-0.1641,-0.164,-0.164,0,0,-0.1321,-0.1381,-0.1389,-0.1411,-0.1463,-0.1481,-0.1528,-0.1565,-0.159,-0.1631,-0.1654,-0.1686,-0.1691,-0.1695,-0.1697,-0.1694,-0.1689,-0.1683,-0.1681,-0.1645,-0.1652,-0.1536,-0.1521,-0.1694,-0.1693,-0.1693,-0.1624,0,-0.133,-0.1374,-0.1405,-0.1453,-0.1477,-0.1518,-0.1555,-0.1594,-0.1627,-0.1658,-0.1674,-0.1699,-0.1705,-0.1717,-0.1716,-0.1697,-0.1684,-0.1707,-0.1636,-0.1633,-0.152,-0.1514,-0.1693,-0.1622,-0.1621,-0.162,-0.162,0,-0.1328,-0.1361,-0.1408,-0.1467,-0.1482,-0.1519,-0.1574,-0.161,-0.1655,-0.168,-0.1707,-0.1718,-0.1728,-0.1726,-0.1699,-0.1716,-0.1687,-0.1667,-0.1664,-0.1534,-0.1511,-0.1588,-0.1614,-0.1614,-0.1615,-0.1615,-0.1616,0,-0.1289,-0.1358,-0.1395,-0.1418,-0.149,-0.1524,-0.1565,-0.1618,-0.1642,-0.1692,-0.1704,-0.1725,-0.1725,-0.1708,-0.1672,-0.1691,-0.1621,-0.1638,-0.1501,-0.1492,-0.1599,-0.1598,-0.1605,-0.1605,-0.1605,-0.1606,-0.1606,0,-0.1266,-0.1299,-0.1386,-0.1405,-0.1449,-0.151,-0.1554,-0.1598,-0.1647,-0.1653,-0.171,-0.1698,-0.1722,-0.1687,-0.1663,-0.1554,-0.161,-0.1487,-0.1462,-0.162,-0.1622,-0.1596,-0.1596,-0.1603,-0.1604,-0.1604,-0.1605,0,-0.1206,-0.1268,-0.1312,-0.14,-0.143,-0.146,-0.154,-0.1557,-0.1623,-0.1629,-0.1643,-0.1672,-0.1622,-0.1613,-0.1566,-0.1514,-0.1444,-0.1391,-0.154,-0.1527,-0.1328,-0.1331,-0.1233,-0.1229,-0.1225,-0.1221,-0.1218,0,-0.1173,-0.1193,-0.1291,-0.1313,-0.1357,-0.1416,-0.1443,-0.153,-0.1538,-0.1586,-0.1563,-0.1552,-0.1549,-0.1374,-0.14,-0.1323,-0.131,-0.1271,-0.1319,-0.1301,-0.1288,-0.1298,-0.1306,-0.1212,-0.1211,-0.121,-0.1209,0,-0.1101,-0.1149,-0.1182,-0.1231,-0.1272,-0.1306,-0.1354,-0.1351,-0.1422,-0.1499,-0.1424,-0.1385,-0.1317,-0.1275,-0.1213,-0.1172,-0.1301,-0.1229,-0.1238,-0.1283,-0.1274,-0.1267,-0.128,-0.1195,-0.1197,-0.1198,-0.1199,0,-0.1038,-0.1042,-0.1091,-0.112,-0.117,-0.1167,-0.1214,-0.1208,-0.1228,-0.1292,-0.1258,-0.1249,-0.1284,-0.1193,-0.1142,-0.1083,-0.1078,-0.1055,-0.1073,-0.1089,-0.1076,-0.1046,-0.0855,0,0,0,0,0,-0.0964,-0.0952,-0.0972,-0.0992,-0.1038,-0.1062,-0.1132,-0.1179,-0.1255,-0.1157,-0.1204,-0.1133,-0.1056,-0.1063,-0.0969,-0.1089,-0.1091,-0.0978,-0.1077,-0.1116,-0.1133,-0.1132,0,0,0,0,0,0,-0.0911,-0.0923,-0.0928,-0.0877,-0.0866,-0.0892,-0.0931,-0.0987,-0.0945,-0.1028,-0.0984,-0.1052,-0.0989,-0.1066,-0.0935,-0.0937,-0.0974,-0.099,-0.0987,-0.1107,-0.1122,-0.1135,-0.114,0,0,0,0,0]},{"header":{"parameterUnit":"m.s-1","parameterCategory":2,"la1":30.2991,"la2":30.254,"lo1":-89.0895,"lo2":-89.0444,"dy":0.0017,"dx":0.0017,"nx":28,"ny":28,"refTime":"2025-12-06T09:00:00:Z","depth":"4","parameterNumber":3,"parameterNumberName":"V-component_of_CURRENTS"},"data":[0,0,0,0,0,0,0,0,0,0,0,0,0,0,0,0,0,0,0,0,0,0,0,0,0,0,0,0,0,0,0,0,0,0,0,0,0,0,0,0,0,0,0,0,0,0,0,0,0,0,0,0,0,0,0,0,0,0,-0.0246,-0.0246,0,-0.0208,-0.0208,-0.0207,-0.0185,-0.0185,-0.0185,-0.0185,-0.0119,-0.0118,-0.0116,0,0,0,0,0,0,0,0,0,0,0,0,0,-0.0264,-0.0264,-0.0246,-0.0246,-0.0246,-0.0208,-0.0208,-0.0207,-0.0185,-0.0185,-0.0185,-0.0185,-0.012,-0.0118,-0.0116,0,0,0,0,0,0,0,0,0,0,0,0,0,-0.0244,-0.0264,-0.0247,-0.023,-0.0228,-0.0208,-0.0208,-0.0207,-0.0185,-0.0185,-0.0185,-0.0185,-0.0121,-0.0118,-0.0116,-0.0102,0,0,-0.0108,-0.0107,0,0,0,0,0,0,0,0,-0.0245,-0.0243,-0.0233,-0.0231,-0.0229,-0.0202,-0.019,-0.0171,-0.0185,-0.0201,-0.0185,-0.0185,-0.0145,-0.014,-0.0133,-0.0099,-0.0096,-0.0108,-0.0106,-0.0105,-0.0104,0,0,0,0,0,0,0,-0.0247,-0.0245,-0.0231,-0.0233,-0.023,-0.0212,-0.021,-0.0186,-0.0173,-0.02,-0.0198,-0.0194,-0.0143,-0.0136,-0.0131,-0.0095,-0.0108,-0.0106,-0.0104,-0.0103,-0.0044,-0.0044,0,0,0,0,0,0,-0.0254,-0.0246,-0.0232,-0.023,-0.0238,-0.0212,-0.0209,-0.021,-0.0174,-0.0169,-0.0195,-0.0194,-0.014,-0.0134,-0.0129,-0.0112,-0.0105,-0.0103,-0.0101,-0.0044,-0.0044,-0.0044,0,0,0,0,0,0,-0.0255,-0.0253,-0.0234,-0.0237,-0.0233,-0.0213,-0.0213,-0.021,-0.0205,-0.017,-0.0164,-0.0195,-0.014,-0.0132,-0.0111,-0.0109,-0.0102,-0.0099,-0.0044,-0.0044,-0.0044,-0.0077,0,0,0,0,0,0,-0.0255,-0.0254,-0.026,-0.0238,-0.0234,-0.0227,-0.0213,-0.0209,-0.0203,-0.0201,-0.0168,-0.0162,-0.0139,-0.0115,-0.0108,-0.0106,-0.0097,-0.0044,-0.0044,-0.0044,-0.0076,-0.0078,-0.008,0,0,0,0,0,-0.0256,-0.0264,-0.0261,-0.0259,-0.0242,-0.0227,-0.0223,-0.0207,-0.0203,-0.0203,-0.018,-0.0163,-0.0109,-0.0112,-0.0105,-0.0102,-0.0044,-0.0044,-0.0044,-0.0075,-0.0078,-0.008,0,0,0,0,0,0,-0.0274,-0.0262,-0.0258,-0.0262,-0.0248,-0.0224,-0.0224,-0.0212,-0.0194,-0.0195,-0.0162,-0.0154,-0.0136,-0.0114,-0.0118,-0.0084,-0.0074,-0.0072,-0.01,-0.0102,-0.0104,-0.0112,-0.0095,0,0,0,0,0,-0.0282,-0.0286,-0.0268,-0.0272,-0.0268,-0.0247,-0.0241,-0.023,-0.021,-0.0203,-0.0179,-0.0153,-0.0129,-0.0113,-0.0091,-0.007,-0.0045,-0.0063,-0.0065,-0.0067,-0.0068,-0.0028,-0.0026,-0.0044,-0.0044,-0.0044,0,0,-0.029,-0.0284,-0.0287,-0.0276,-0.0266,-0.0262,-0.0243,-0.0238,-0.0232,-0.0198,-0.0186,-0.0162,-0.0126,-0.0106,-0.0095,-0.0087,-0.005,-0.0067,-0.0069,-0.0069,-0.0027,-0.0025,-0.0024,-0.0043,-0.0044,-0.0044,0,0,-0.0307,-0.0304,-0.0313,-0.0305,-0.0293,-0.0278,-0.0279,-0.0258,-0.0247,-0.0232,-0.0206,-0.0179,-0.0146,-0.0116,-0.0097,-0.0095,-0.0065,-0.0091,-0.0101,-0.0062,-0.006,-0.0058,-0.0029,-0.0024,-0.0087,-0.0087,-0.0087,0,-0.0319,-0.0327,-0.0312,-0.0317,-0.0313,-0.0289,-0.0294,-0.0277,-0.0251,-0.024,-0.0234,-0.0177,-0.0149,-0.0112,-0.0113,-0.0098,-0.0077,-0.0096,-0.0065,-0.0062,-0.006,-0.003,-0.0024,-0.0089,-0.0089,-0.0088,-0.0088,0,-0.0339,-0.0347,-0.0351,-0.0349,-0.0342,-0.0343,-0.0319,-0.0309,-0.0294,-0.0272,-0.0241,-0.0199,-0.0163,-0.0149,-0.013,-0.0098,-0.009,-0.0076,-0.006,-0.006,-0.0028,-0.0022,-0.0091,-0.009,-0.009,-0.009,0,0,-0.0362,-0.0366,-0.0369,-0.0376,-0.0361,-0.0358,-0.0347,-0.0327,-0.0319,-0.0286,-0.0267,-0.022,-0.0195,-0.0172,-0.0139,-0.0103,-0.0068,-0.0087,-0.0084,-0.0061,0.0011,0.0001,0.0007,-0.0051,-0.005,-0.0049,0.0023,0,-0.0384,-0.0408,-0.0397,-0.0412,-0.0421,-0.0396,-0.0388,-0.0365,-0.0338,-0.0311,-0.0258,-0.023,-0.0203,-0.0187,-0.0146,-0.0088,-0.0052,-0.0089,0.001,0.0013,0.0001,0.0014,-0.0046,0.0029,0.003,0.0031,0.0032,0,-0.0406,-0.0421,-0.0447,-0.0451,-0.0451,-0.0455,-0.0439,-0.0426,-0.0377,-0.0354,-0.0309,-0.0267,-0.0206,-0.0188,-0.0083,-0.011,-0.0056,-0.001,-0.0006,0.0001,0.0015,0.0031,0.0044,0.0043,0.0043,0.0042,0.0041,0,-0.0437,-0.0453,-0.0479,-0.0481,-0.048,-0.0486,-0.0481,-0.0445,-0.0431,-0.0381,-0.0362,-0.0285,-0.0242,-0.0165,-0.007,-0.0076,0.0045,0.0051,0.0095,0.0095,0.0097,0.0094,0.0124,0.0123,0.0123,0.0123,0.0123,0,-0.0462,-0.0482,-0.0502,-0.0517,-0.0544,-0.0526,-0.0536,-0.0515,-0.0478,-0.0455,-0.0391,-0.0348,-0.0235,-0.0151,-0.0072,0.0032,0.0047,0.0096,0.0116,0.008,0.0075,0.0101,0.0098,0.0126,0.0125,0.0125,0.0124,0,-0.0488,-0.0501,-0.0535,-0.0554,-0.0563,-0.0583,-0.0582,-0.058,-0.0542,-0.0509,-0.0494,-0.0388,-0.0275,-0.0163,-0.0024,0.0029,0.0128,0.0161,0.0111,0.0127,0.0152,0.0145,0.0214,0.0215,0.0215,0.0215,0.0215,0,-0.0501,-0.0524,-0.0571,-0.0597,-0.0611,-0.0636,-0.0648,-0.0621,-0.0607,-0.0525,-0.0506,-0.0392,-0.0313,-0.0116,-0.001,0.0138,0.0156,0.0195,0.0175,0.015,0.0163,0.0156,0.015,0.0216,0.0216,0.0216,0.0216,0,-0.0524,-0.0548,-0.0578,-0.0636,-0.0668,-0.0692,-0.0701,-0.069,-0.0639,-0.0613,-0.0493,-0.0382,-0.0251,-0.0104,0.001,0.0114,0.0162,0.0198,0.0198,0.0179,0.0152,0.0163,0.0157,0.0217,0.0217,0.0217,0.0217,0,-0.0538,-0.0571,-0.0616,-0.066,-0.0707,-0.0723,-0.0726,-0.0686,-0.0659,-0.0559,-0.0517,-0.0367,-0.0274,-0.0116,-0.001,0.0089,0.0108,0.0126,0.013,0.013,0.0078,0.0029,0.0077,0,0,0,0,0,-0.0544,-0.058,-0.063,-0.0678,-0.0724,-0.0741,-0.0745,-0.0732,-0.0684,-0.0601,-0.0551,-0.0422,-0.0234,-0.0148,-0.0049,-0.0027,0.0103,0.0087,0.0119,0.0222,0.0221,0.0173,0,0,0,0,0,0,-0.0549,-0.0602,-0.0629,-0.0678,-0.0707,-0.0744,-0.0744,-0.0712,-0.0652,-0.0589,-0.0482,-0.0416,-0.0233,-0.0287,-0.005,-0.0021,0.0008,0.0178,0.018,0.0223,0.0222,0.0221,0.0171,0,0,0,0,0]}]]